Location: Sankt+Gallen
(47.4262°N, 9.3755°E)
Time: 09:30:13
(UTC+01:00)

ARIANE 6 FM1 Upper Stage - Pass Details

Date: 17 February 2026
Orbit: 523 x 606 km, 62.0° (Epoch: 14 March)

Event Time Altitude Azimuth Distance (km) Brightness Sun altitude
Rises 18:37:33 0° 320° (NW) 2,662 6.6 -8.8°
Reaches altitude 10° 18:39:48 10° 326° (NW) 1,769 5.6 -9.2°
Maximum altitude 18:43:38 48° 42° (NE) 695 2.8 -9.9°
Enters shadow 18:47:27 10° 117° (ESE) 1,759 4.7 -10.5°
